Hourly Data Report for October 09, 2016

All times are specified in Local Standard Time (LST). Add 1 hour to adjust for Daylight Saving Time where and when it is observed.

KITCHENER/WATERLOO
ONTARIO

43°27'39.000" N
80°22'43.000" W
321.60 m
6144239
71368
YKF

Download Data

Hourly Data (October 2016)
Hourly Data Report for October 9, 2016
Temp Definition
°C
Dew Point Temp Definition
°C
Rel Hum Definition
%
Wind Dir Definition
10's deg

Wind Spd Definition
km/h
Visibility Definition
km
Stn Press Definition
kPa
Hmdx Definition


Wind Chill Definition


Weather Definition


TIME
00:00 Legend Double Dagger 5.7 3.4 85 29 8 16.1 98.40     LegendNANA
01:00 Legend Double Dagger 5.1 3.3 88 31 9 16.1 98.41     LegendNANA
02:00 Legend Double Dagger 4.4 2.8 89 33 8 16.1 98.44     LegendNANA
03:00 Legend Double Dagger 3.7 3.0 95   0 16.1 98.47     LegendNANA
04:00 Legend Double Dagger 2.8 2.3 96 30 4 16.1 98.49     LegendNANA
05:00 Legend Double Dagger 5.3 4.4 94 31 4 16.1 98.56     LegendNANA
06:00 Legend Double Dagger 5.2 4.3 94 27 8 16.1 98.60     LegendNANA
07:00 Legend Double Dagger 6.4 5.7 95 29 9 16.1 98.65     LegendNANA
08:00 Legend Double Dagger 8.0 6.1 88 30 11 16.1 98.71     LegendNANA
09:00 Legend Double Dagger 9.6 5.5 75 32 9 16.1 98.72     LegendNANA
10:00 Legend Double Dagger 11.0 5.5 69 33 18 16.1 98.74     LegendNANA
11:00 Legend Double Dagger 11.2 4.4 63 36 18 16.1 98.75     LegendNANA
12:00 Legend Double Dagger 10.4 4.4 66 36 18 16.1 98.77     LegendNANA
13:00 Legend Double Dagger 12.9 2.9 51 33 22 16.1 98.71     LegendNANA
14:00 Legend Double Dagger 12.3 3.1 53 31 18 16.1 98.71     LegendNANA
15:00 Legend Double Dagger 11.7 2.0 51 33 21 16.1 98.75     LegendNANA
16:00 Legend Double Dagger 11.1 2.1 54 36 22 16.1 98.81     LegendNANA
17:00 Legend Double Dagger 9.7 1.7 57 35 17 16.1 98.87     LegendNANA
18:00 Legend Double Dagger 7.9 1.2 62 36 17 16.1 98.91     LegendNANA
19:00 Legend Double Dagger 6.3 1.4 71 36 15 16.1 98.98     LegendNANA
20:00 Legend Double Dagger 4.9 0.9 75 35 9 16.1 99.02     LegendNANA
21:00 Legend Double Dagger 3.1 1.1 87 32 5 16.1 99.01     LegendNANA
22:00 Legend Double Dagger 2.4 0.6 88 31 8 16.1 99.08     LegendNANA
23:00 Legend Double Dagger 2.6 0.8 88 LegendMM 4 16.1 99.04     LegendNANA

Notes on Data Quality.

Legend

  • E = Estimated
  • M = Missing
  • NA = Not Available
  • ‡ = Partner data that is not subject to review by the National Climate Archives
Date modified: